[[{"header":{"parameterUnit":"m.s-1","parameterCategory":1,"la1":30.2991,"la2":30.254,"lo1":-89.0895,"lo2":-89.0444,"dy":0.0017,"dx":0.0017,"nx":28,"ny":28,"refTime":"2023-11-14T09:00:00:Z","depth":0,"parameterNumber":2,"parameterNumberName":"U-component_of_WINDS"},"data":[0,0,0,0,0,0,0,0,0,0,0,0,0,0,0,0,0,0,0,0,0,0,0,0,0,0,0,0,0,0,0,0,0,0,0,0,0,0,0,0,0,0,0,0,0,0,0,0,0,0,0,0,0,0,0,0,0,0,-5.3719,-5.372,0,-5.3726,-5.3726,-5.3726,-5.359,-5.3586,-5.3582,-5.3579,-5.3585,-5.3589,-5.3592,0,0,0,0,0,0,0,0,0,0,0,0,0,-5.3588,-5.3591,-5.3719,-5.372,-5.372,-5.3726,-5.3726,-5.3726,-5.359,-5.3586,-5.3581,-5.3577,-5.3584,-5.3588,-5.3593,0,0,0,0,0,0,0,0,0,0,0,0,0,-5.3625,-5.3592,-5.3719,-5.3653,-5.3647,-5.3726,-5.3726,-5.3726,-5.3591,-5.3586,-5.358,-5.3575,-5.3583,-5.3588,-5.3593,-5.3737,0,0,-5.361,-5.3612,0,0,0,0,0,0,0,0,-5.3623,-5.363,-5.3662,-5.3657,-5.3651,-5.3651,-5.3682,-5.373,-5.3593,-5.3612,-5.3579,-5.3572,-5.3612,-5.3614,-5.3628,-5.3737,-5.3737,-5.361,-5.3614,-5.3616,-5.3617,0,0,0,0,0,0,0,-5.362,-5.3629,-5.3722,-5.3663,-5.3656,-5.3622,-5.3621,-5.369,-5.3643,-5.361,-5.36,-5.3603,-5.3607,-5.3623,-5.3627,-5.3737,-5.361,-5.3615,-5.3618,-5.362,-5.3963,-5.3969,0,0,0,0,0,0,-5.3627,-5.3627,-5.3722,-5.3722,-5.3623,-5.3629,-5.3628,-5.3657,-5.3642,-5.3634,-5.3608,-5.3597,-5.3616,-5.3621,-5.3627,-5.3792,-5.3616,-5.3621,-5.3624,-5.3957,-5.3964,-5.3971,0,0,0,0,0,0,-5.3625,-5.3637,-5.3721,-5.3672,-5.368,-5.3637,-5.3671,-5.366,-5.3675,-5.364,-5.3631,-5.3632,-5.3612,-5.3619,-5.371,-5.379,-5.3623,-5.3628,-5.395,-5.3959,-5.3967,-5.4126,0,0,0,0,0,0,-5.3622,-5.3637,-5.3691,-5.3674,-5.3683,-5.3806,-5.3676,-5.3664,-5.3685,-5.367,-5.366,-5.3653,-5.3608,-5.3703,-5.3715,-5.3795,-5.3632,-5.3943,-5.3954,-5.3965,-5.4113,-5.4139,-5.4161,0,0,0,0,0,-5.3617,-5.3736,-5.3695,-5.3707,-5.3751,-5.3811,-5.3816,-5.3762,-5.3692,-5.3746,-5.3723,-5.3654,-5.378,-5.3713,-5.3726,-5.3809,-5.3937,-5.3951,-5.3964,-5.4102,-5.4134,-5.416,0,0,0,0,0,0,-5.3763,-5.3732,-5.3687,-5.3803,-5.3811,-5.3788,-5.3854,-5.3797,-5.3824,-5.381,-5.3741,-5.374,-5.3842,-5.3834,-5.3761,-5.3946,-5.3846,-5.3863,-5.3947,-5.3976,-5.4,-5.3999,-5.3637,0,0,0,0,0,-5.3809,-5.3861,-5.3831,-5.3937,-5.3943,-5.3898,-5.3922,-5.388,-5.3885,-5.3887,-5.3871,-5.3878,-5.3919,-5.3947,-5.3983,-5.4111,-5.4106,-5.4174,-5.4198,-5.4218,-5.4233,-5.4298,-5.4328,-5.4014,-5.4014,-5.4014,0,0,-5.3904,-5.3894,-5.3931,-5.3966,-5.3966,-5.4021,-5.3902,-5.3964,-5.4004,-5.3896,-5.3981,-5.397,-5.3973,-5.4083,-5.4131,-5.408,-5.4318,-5.4235,-5.4251,-5.4255,-5.4315,-5.4345,-5.4371,-5.4023,-5.4021,-5.402,0,0,-5.4105,-5.4103,-5.419,-5.4193,-5.4195,-5.4165,-5.4186,-5.4172,-5.416,-5.4244,-5.4164,-5.421,-5.4282,-5.4287,-5.43,-5.4502,-5.4438,-5.4515,-5.464,-5.4704,-5.4729,-5.4751,-5.4821,-5.4847,-5.453,-5.4531,-5.4531,0,-5.4223,-5.4301,-5.4242,-5.4309,-5.4327,-5.4232,-5.4319,-5.4325,-5.434,-5.4353,-5.4297,-5.4385,-5.438,-5.4489,-5.4539,-5.4552,-5.4573,-5.4516,-5.473,-5.4751,-5.4771,-5.4837,-5.4864,-5.454,-5.4539,-5.4538,-5.4537,0,-5.4445,-5.4501,-5.4571,-5.4587,-5.4612,-5.4689,-5.4641,-5.4673,-5.4629,-5.4605,-5.469,-5.4682,-5.4714,-5.4737,-5.4695,-5.484,-5.4808,-5.4742,-5.464,-5.4811,-5.4872,-5.4897,-5.4553,-5.455,-5.4547,-5.4545,0,0,-5.4737,-5.4719,-5.4745,-5.475,-5.4746,-5.4788,-5.4861,-5.4892,-5.492,-5.4934,-5.4992,-5.5055,-5.4994,-5.5008,-5.4965,-5.5022,-5.5181,-5.4949,-5.4948,-5.4991,-5.5339,-5.5387,-5.5418,-5.514,-5.5144,-5.5148,-5.5338,0,-5.493,-5.5053,-5.5001,-5.5128,-5.5178,-5.5089,-5.5152,-5.5157,-5.5136,-5.5175,-5.5151,-5.5197,-5.5113,-5.5121,-5.5174,-5.5151,-5.525,-5.5136,-5.5192,-5.5195,-5.5192,-5.545,-5.5501,-5.5681,-5.5362,-5.5366,-5.5369,0,-5.5171,-5.5194,-5.5327,-5.5312,-5.5331,-5.5389,-5.5412,-5.5451,-5.5454,-5.5434,-5.545,-5.5395,-5.5464,-5.5364,-5.5458,-5.5382,-5.5402,-5.5395,-5.54,-5.5402,-5.5291,-5.5457,-5.5737,-5.5763,-5.5406,-5.5403,-5.54,0,-5.5368,-5.5432,-5.5519,-5.5527,-5.5513,-5.5555,-5.5552,-5.5549,-5.557,-5.5591,-5.5604,-5.5634,-5.5649,-5.5673,-5.5626,-5.5558,-5.5726,-5.5623,-5.5711,-5.5712,-5.5749,-5.5747,-5.6034,-5.5766,-5.5765,-5.5765,-5.5764,0,-5.5588,-5.5672,-5.5607,-5.5661,-5.5752,-5.5692,-5.5784,-5.577,-5.5768,-5.5817,-5.5743,-5.579,-5.5726,-5.5767,-5.5731,-5.5814,-5.5822,-5.5807,-5.5796,-5.5813,-5.5814,-5.5823,-5.5809,-5.5772,-5.577,-5.5769,-5.5768,0,-5.5823,-5.5783,-5.5871,-5.5851,-5.5848,-5.5916,-5.5898,-5.5946,-5.592,-5.5983,-5.5994,-5.5953,-5.5998,-5.5954,-5.5996,-5.5971,-5.6081,-5.6054,-5.6081,-5.6072,-5.6161,-5.6153,-5.6463,-5.65,-5.621,-5.6213,-5.6215,0,-5.5964,-5.6026,-5.6013,-5.604,-5.6041,-5.6086,-5.6107,-5.6051,-5.6076,-5.6084,-5.6131,-5.6169,-5.6196,-5.6271,-5.6245,-5.6276,-5.6247,-5.6354,-5.6251,-5.6265,-5.6246,-5.6242,-5.6247,-5.6374,-5.6377,-5.638,-5.6383,0,-5.6219,-5.6196,-5.623,-5.6258,-5.6285,-5.6304,-5.6317,-5.6344,-5.6285,-5.6318,-5.6362,-5.6383,-5.6426,-5.6464,-5.6488,-5.6483,-5.6423,-5.6416,-5.6437,-5.6453,-5.6465,-5.6458,-5.6135,-5.6408,-5.6405,-5.6404,-5.6402,-5.6401,-5.6409,-5.646,-5.6458,-5.6498,-5.6502,-5.6516,-5.656,-5.6539,-5.6575,-5.6605,-5.657,-5.6624,-5.6624,-5.665,-5.6652,-5.6693,-5.6648,-5.668,-5.6688,-5.6696,-5.6708,-5.6461,-5.6698,-5.6697,-5.6696,-5.6696,-5.6695,0,-5.6658,-5.6652,-5.669,-5.671,-5.6742,-5.6684,-5.6695,-5.6725,-5.6773,-5.6779,-5.6807,-5.6858,-5.6895,-5.6872,-5.6903,-5.694,-5.6914,-5.695,-5.6945,-5.6945,-5.6748,-5.6725,-5.6971,-5.6971,-5.6971,-5.6971,-5.6971,-5.6971,-5.6791,-5.6872,-5.685,-5.6933,-5.6926,-5.6978,-5.699,-5.7002,-5.7006,-5.7065,-5.7096,-5.7081,-5.7075,-5.7105,-5.7136,-5.7128,-5.7142,-5.7188,-5.7171,-5.6986,-5.6959,-5.6933,-5.6911,-5.7193,-5.7193,-5.7364,-5.7366,-5.7367]},{"header":{"parameterUnit":"m.s-1","parameterCategory":1,"la1":30.2991,"la2":30.254,"lo1":-89.0895,"lo2":-89.0444,"dy":0.0017,"dx":0.0017,"nx":28,"ny":28,"refTime":"2023-11-14T09:00:00:Z","depth":0,"parameterNumber":3,"parameterNumberName":"V-component_of_WINDS"},"data":[0,0,0,0,0,0,0,0,0,0,0,0,0,0,0,0,0,0,0,0,0,0,0,0,0,0,0,0,0,0,0,0,0,0,0,0,0,0,0,0,0,0,0,0,0,0,0,0,0,0,0,0,0,0,0,0,0,0,-2.2101,-2.2101,0,-2.209,-2.2089,-2.2089,-2.2111,-2.2112,-2.2112,-2.2113,-2.2098,-2.2097,-2.2096,0,0,0,0,0,0,0,0,0,0,0,0,0,-2.2138,-2.2138,-2.2101,-2.2101,-2.2101,-2.209,-2.2089,-2.2089,-2.2111,-2.2112,-2.2112,-2.2113,-2.2098,-2.2097,-2.2095,0,0,0,0,0,0,0,0,0,0,0,0,0,-2.2124,-2.2137,-2.2101,-2.211,-2.2111,-2.209,-2.2089,-2.2089,-2.211,-2.2112,-2.2113,-2.2114,-2.2098,-2.2097,-2.2095,-2.2063,0,0,-2.209,-2.209,0,0,0,0,0,0,0,0,-2.2125,-2.2123,-2.2109,-2.211,-2.2111,-2.2103,-2.2097,-2.208,-2.211,-2.2111,-2.2113,-2.2114,-2.2098,-2.2097,-2.2092,-2.2063,-2.2062,-2.209,-2.2089,-2.2088,-2.2088,0,0,0,0,0,0,0,-2.2126,-2.2123,-2.2097,-2.2109,-2.211,-2.2114,-2.2113,-2.2094,-2.2098,-2.2111,-2.2112,-2.2111,-2.2099,-2.2094,-2.2092,-2.2062,-2.209,-2.2089,-2.2088,-2.2087,-2.2002,-2.2001,0,0,0,0,0,0,-2.2126,-2.2124,-2.2097,-2.2096,-2.2121,-2.2112,-2.2111,-2.2104,-2.2099,-2.2099,-2.211,-2.2112,-2.2096,-2.2094,-2.2091,-2.2051,-2.2088,-2.2087,-2.2086,-2.2003,-2.2002,-2.2,0,0,0,0,0,0,-2.2127,-2.2123,-2.2097,-2.211,-2.2107,-2.211,-2.2102,-2.2103,-2.2098,-2.2098,-2.2099,-2.2104,-2.2097,-2.2094,-2.207,-2.2051,-2.2086,-2.2085,-2.2005,-2.2003,-2.2001,-2.1971,0,0,0,0,0,0,-2.2128,-2.2124,-2.2112,-2.211,-2.2107,-2.2077,-2.2101,-2.2102,-2.2096,-2.2098,-2.2092,-2.2093,-2.2097,-2.2072,-2.2068,-2.2049,-2.2083,-2.2006,-2.2004,-2.2002,-2.1974,-2.1968,-2.1964,0,0,0,0,0,-2.2129,-2.2105,-2.2112,-2.2108,-2.2093,-2.2076,-2.2074,-2.208,-2.2094,-2.2082,-2.2082,-2.2093,-2.2054,-2.2069,-2.2065,-2.2045,-2.2008,-2.2005,-2.2002,-2.1976,-2.1969,-2.1964,0,0,0,0,0,0,-2.2104,-2.2104,-2.2112,-2.2087,-2.2081,-2.208,-2.2065,-2.2074,-2.2064,-2.2066,-2.2074,-2.2072,-2.2046,-2.2044,-2.2061,-2.2012,-2.2033,-2.2029,-2.2015,-2.2008,-2.2004,-2.2003,-2.2082,0,0,0,0,0,-2.2096,-2.2083,-2.2084,-2.2061,-2.2058,-2.2062,-2.2054,-2.206,-2.2054,-2.2051,-2.205,-2.2042,-2.2028,-2.2019,-2.2006,-2.1974,-2.1971,-2.1959,-2.1954,-2.195,-2.1945,-2.1925,-2.1918,-2.1991,-2.1991,-2.1991,0,0,-2.2078,-2.2076,-2.2068,-2.2056,-2.2052,-2.2036,-2.2059,-2.2043,-2.2031,-2.2049,-2.2025,-2.2024,-2.2016,-2.1987,-2.1974,-2.1984,-2.1925,-2.1946,-2.1943,-2.194,-2.1921,-2.1914,-2.1908,-2.1989,-2.1989,-2.1989,0,0,-2.2037,-2.2036,-2.2015,-2.2011,-2.2005,-2.2008,-2.2003,-2.2,-2.1999,-2.1977,-2.1989,-2.1974,-2.1951,-2.1944,-2.1937,-2.1892,-2.1901,-2.1888,-2.1861,-2.1841,-2.1835,-2.183,-2.1811,-2.1804,-2.1884,-2.1884,-2.1884,0,-2.2014,-2.1993,-2.2003,-2.1985,-2.1978,-2.1995,-2.1973,-2.1968,-2.1958,-2.1952,-2.1964,-2.1933,-2.1929,-2.1897,-2.1886,-2.1882,-2.1874,-2.1887,-2.1836,-2.1831,-2.1826,-2.1807,-2.18,-2.1883,-2.1883,-2.1883,-2.1883,0,-2.1965,-2.195,-2.1934,-2.1924,-2.1916,-2.1896,-2.1901,-2.1891,-2.1897,-2.1898,-2.1873,-2.1869,-2.1854,-2.1848,-2.1854,-2.1816,-2.1822,-2.1835,-2.1855,-2.1817,-2.1799,-2.1793,-2.188,-2.1881,-2.1881,-2.1882,0,0,-2.1906,-2.1902,-2.1896,-2.189,-2.1885,-2.1873,-2.1853,-2.1839,-2.1829,-2.1822,-2.1803,-2.1782,-2.1794,-2.1786,-2.1791,-2.1775,-2.1735,-2.1789,-2.1789,-2.1776,-2.1688,-2.1676,-2.1668,-2.1742,-2.1741,-2.174,-2.1688,0,-2.1863,-2.1829,-2.1837,-2.1803,-2.1787,-2.1803,-2.1785,-2.1779,-2.1779,-2.1764,-2.1764,-2.1748,-2.1766,-2.1761,-2.1745,-2.1743,-2.1717,-2.1747,-2.1721,-2.172,-2.1719,-2.166,-2.1647,-2.1598,-2.1682,-2.168,-2.168,0,-2.1808,-2.1798,-2.1763,-2.1758,-2.1752,-2.1736,-2.1722,-2.171,-2.1702,-2.1703,-2.1694,-2.1702,-2.168,-2.1702,-2.167,-2.169,-2.168,-2.1678,-2.1676,-2.1671,-2.1695,-2.165,-2.1584,-2.1575,-2.167,-2.1671,-2.1671,0,-2.1764,-2.1743,-2.1718,-2.1713,-2.1708,-2.1696,-2.1693,-2.1687,-2.1677,-2.1666,-2.1659,-2.1645,-2.1636,-2.1624,-2.1627,-2.1644,-2.1593,-2.1616,-2.159,-2.1589,-2.1576,-2.1576,-2.1504,-2.1575,-2.1575,-2.1576,-2.1576,0,-2.1713,-2.169,-2.1698,-2.1682,-2.1656,-2.1665,-2.1638,-2.1637,-2.163,-2.1613,-2.1626,-2.1609,-2.1616,-2.1599,-2.1602,-2.1572,-2.1569,-2.1567,-2.1567,-2.1564,-2.1563,-2.1555,-2.1557,-2.1574,-2.1574,-2.1574,-2.1575,0,-2.1659,-2.1664,-2.1637,-2.1634,-2.1633,-2.1613,-2.161,-2.1594,-2.1596,-2.1573,-2.1568,-2.157,-2.155,-2.1553,-2.1531,-2.1533,-2.1495,-2.1501,-2.1497,-2.1497,-2.1469,-2.147,-2.1386,-2.1374,-2.1457,-2.1456,-2.1455,0,-2.1624,-2.1606,-2.1602,-2.1591,-2.1588,-2.1571,-2.1562,-2.157,-2.1559,-2.1548,-2.1532,-2.1514,-2.15,-2.1467,-2.1465,-2.1447,-2.1451,-2.1422,-2.1448,-2.1444,-2.1446,-2.1445,-2.1441,-2.1416,-2.1415,-2.1414,-2.1414,0,-2.156,-2.1564,-2.155,-2.1537,-2.1525,-2.1515,-2.1506,-2.1496,-2.1503,-2.149,-2.147,-2.1459,-2.1436,-2.1417,-2.14,-2.1395,-2.1403,-2.1406,-2.1398,-2.1393,-2.139,-2.1387,-2.1479,-2.1407,-2.1408,-2.1408,-2.1409,-2.1409,-2.1512,-2.1496,-2.149,-2.1474,-2.1468,-2.1459,-2.1443,-2.1442,-2.1426,-2.1409,-2.1415,-2.1391,-2.1382,-2.1361,-2.1354,-2.1334,-2.1344,-2.1334,-2.133,-2.1327,-2.1322,-2.1396,-2.1331,-2.1332,-2.1332,-2.1332,-2.1332,0,-2.1446,-2.1443,-2.1428,-2.1415,-2.1401,-2.1414,-2.1404,-2.1391,-2.1371,-2.1362,-2.1347,-2.1323,-2.1304,-2.13,-2.1281,-2.1266,-2.1269,-2.126,-2.1259,-2.1257,-2.1316,-2.1323,-2.1257,-2.1257,-2.1257,-2.1257,-2.1257,-2.1257,-2.141,-2.1383,-2.1385,-2.1353,-2.135,-2.1328,-2.1321,-2.1311,-2.1304,-2.1277,-2.1261,-2.126,-2.1252,-2.1232,-2.1214,-2.1213,-2.1203,-2.1192,-2.1192,-2.1246,-2.1253,-2.126,-2.1267,-2.1191,-2.119,-2.1134,-2.1134,-2.1133]}]]